Hourly Data Report for September 11, 2017

All times are specified in Local Standard Time (LST). Add 1 hour to adjust for Daylight Saving Time where and when it is observed.

MIRAMICHI RCS
NEW BRUNSWICK

47°00'34.000" N
65°27'54.000" W
33.00 m
8100989
71744
ACQ

Download Data

Hourly Data (September 2017)
Hourly Data Report for September 11, 2017
Temp Definition
°C
Dew Point Temp Definition
°C
Rel Hum Definition
%
Wind Dir Definition
10's deg

Wind Spd Definition
km/h
Visibility Definition
km
Stn Press Definition
kPa
Hmdx Definition


Wind Chill Definition


Weather Definition


TIME
00:00 12.0 10.2 89 27 8   101.51     LegendNANA
01:00 12.0 10.5 90 29 8   101.47     LegendNANA
02:00 12.0 10.8 93 22 2   101.42     LegendNANA
03:00 11.6 10.6 94 12 6   101.42     LegendNANA
04:00 11.6 10.4 93 20 2   101.37     LegendNANA
05:00 11.7 10.5 92 27 7   101.37     LegendNANA
06:00 12.7 9.9 84 33 6   101.41     LegendNANA
07:00 13.2 9.9 80 33 7   101.45     LegendNANA
08:00 14.0 10.2 78 33 6   101.46     LegendNANA
09:00 16.1 11.0 72 5 5   101.48     LegendNANA
10:00 18.0 10.7 63 3 13   101.48     LegendNANA
11:00 18.5 9.7 56 1 15   101.53     LegendNANA
12:00 19.2 9.1 52 3 17   101.47     LegendNANA
13:00 19.9 9.6 51 2 12   101.37     LegendNANA
14:00 20.5 8.9 47 3 15   101.32     LegendNANA
15:00 21.0 9.8 49 35 12   101.25     LegendNANA
16:00 21.0 9.4 47 3 16   101.17     LegendNANA
17:00 18.8 12.2 65 7 13   101.16     LegendNANA
18:00 16.8 12.0 74 8 17   101.16     LegendNANA
19:00 14.6 11.8 83 9 8   101.16     LegendNANA
20:00 14.1 11.6 85 6 7   101.15     LegendNANA
21:00 12.6 11.2 91 30 1   101.16     LegendNANA
22:00 11.4 10.5 95 0 1   101.16     LegendNANA
23:00 10.1 9.2 94 26 2   101.16     LegendNANA

Notes on Data Quality.

Legend

  • E = Estimated
  • M = Missing
  • NA = Not Available
  • ‡ = Partner data that is not subject to review by the National Climate Archives
Date modified: